Regional Weather Roundup
Issued by NWS

Home | Current Version | Previous Version | Text Only | Print | Product List | Glossary On
Versions: 1 2 3 4 5 6 7 8 9 10 11 12 13 14 15 16 17 18 19 20 21 22 23 24 25 26 27 28 29 30 31 32 33 34 35 36 37 38 39 40 41 42 43 44 45 46 47 48 49 50
000
ASUS43 KLMK 281810
RWRKY
KENTUCKY REGIONAL WEATHER ROUNDUP
NATIONAL WEATHER SERVICE LOUISVILLE KY
200 PM EDT THU MAY 28 2015

NOTE "FAIR" INDICATES FEW OR NO CLOUDS BELOW 12,000 FEET
WITH NO SIGNIFICANT WEATHER AND/OR OBSTRUCTIONS TO VISIBILITY.

KYZ001>023-026-027-061>063-070>075-281900-
WESTERN AND SOUTH CENTRAL KENTUCKY

CITY           SKY/WX    TMP DP  RH WIND       PRES   REMARKS
PADUCAH        MOSUNNY   82  65  56 VRB7      30.16R
HENDERSON      MOSUNNY   79  66  65 S8        30.14S
OWENSBORO      PTSUNNY   82  68  62 VRB7      30.17S
HOPKINSVILLE   MOSUNNY   79  65  62 E8        30.17F
BOWLING GREEN  MOSUNNY   81  66  60 SE9       30.19F
GLASGOW        PTSUNNY   77  63  61 SE7       30.21S
$$

KYZ024-025-028>034-038-045-046-053-281900-
NORTH CENTRAL KENTUCKY

CITY           SKY/WX    TMP DP  RH WIND       PRES   REMARKS
LOUISVILLE/SDF CLOUDY    77  66  68 E5        30.20F
LOUISVILLE/LOU CLOUDY    74  67  78 SE7       30.21F
FORT KNOX      PTSUNNY   77  68  73 E9        30.18F
$$

KYZ035>037-039>044-047>052-055>060-089>105-281900-
NORTHEAST KENTUCKY

CITY           SKY/WX    TMP DP  RH WIND       PRES   REMARKS
LEXINGTON      MOSUNNY   78  66  66 S8        30.22F
COVINGTON      PTSUNNY   77  65  66 S7        30.21F
FRANKFORT        N/A    N/A N/A N/A MISG      30.21F
$$

KYZ054-064>069-076>088-106>120-281900-
SOUTHEAST KENTUCKY

CITY           SKY/WX    TMP DP  RH WIND       PRES   REMARKS
JACKSON        CLOUDY    76  64  66 CALM      30.25F
LONDON         LGT RAIN  74  63  68 W3        30.25F
SOMERSET       DRIZZLE   70  64  83 E3        30.25F
MIDDLESBORO    CLOUDY    76  65  68 CALM      30.25S
MONTICELLO     CLOUDY    75  67  76 CALM      30.26F
$$




USA.gov is the U.S. government's official web portal to all federal, state and local government web resources and services.